Cloud_Cover
0 0 0 0 0 24 81 97 84 84 97 97 100 100 91 99 100 100 100 100 100 100 100 95 82 44 8 12 1 0 0 0 0 0 0 0 0 0 0 0 0 0 0 2 5 5 5
0 0 0 0 0 0 0 0 0 0 0 0 0 3 3 25 26 30 11 1 0 0 0 0 0 0 0 0 0 0 0 0 0 0 0 0 0 0 0 0 0 0 0 0 0 0 0
0 0 0 0 6 9 8 3 0 0 0 0 0 0 0 0 0 0 0 0 0 0 0 0 0 0 0 0 0 0 0 0 0 0 0 0 0 0 0 0 0 0 0 0 0 0 0
0 0 0 0 0 0 0 0 0 0 0 0 0 0 0 0 0 0 0 0 0 0 0 0 0 0 0 0 0 0 0 0 0 0 0 0 0 0 0 0 0 0 0 0 0 0 0
0 0 3 1 7 3 0 1 0 0 0 0 0 0 0 0 0 0 0 0 0 0 0 0 0 0 0 0 0 0 0 0 0 1 2 0 0 0 0 0 0 0 0 0 0 0 0
1 0 1 1 1 1 4 1 0 0 0 0 0 0 0 0 0 0 0 0 0 0 0 0 0 0 0 0 0 0 0 5 5 5 4 5 4 0 0 0 0 0 0 0 0 0 0
0 0 0 1 0 0 0 0 0 0 0 0 0 0 0 0 0 0 0 0 0 0 0 0 0 4 5 5 0 2 4 5 4 5 36 34 0 0 0 0 0 0 0 0 0 0 0
0 0 0 0 1 2 0 0 0 0 0 0 0 0 0 0 0 0 0 0 0 0 0 0 0 5 56 17 4 5 21 28 100 91 4 0 0 0 0 0 0 0 0 0 0 0 0
0 0 0 0 1 2 1 4 3 0 0 0 0 0 0 0 0 0 0 0 0 0 0 0 0 0 5 30 65 87 43 16 2 0 0 0 0 0 0 0 0 0 0 0 0 0 0
0 0 0 0 0 2 6 11 7 0 0 0 0 0 2 1 0 0 0 0 0 0 0 0 0 0 0 5 5 5 1 0 1 0 0 0 0 0 0 0 0 0 0 0 0 42 56
0 0 0 0 0 3 1 9 8 2 0 0 0 0 5 0 0 0 4 0 0 0 0 0 0 0 4 1 0 0 0 0 0 0 0 0 0 0 0 0 0 0 0 0 0 5 100
0 0 0 0 0 0 0 0 5 5 4 2 5 5 5 5 0 3 0 0 0 0 0 0 0 0 0 0 0 0 0 0 0 0 0 0 0 0 0 0 0 0 0 1 16 68 99
0 0 0 0 0 0 0 0 0 2 5 5 5 5 5 5 5 2 4 4 0 0 0 0 0 0 0 0 0 0 0 0 0 0 0 0 0 0 0 0 0 0 2 4 31 100 100
0 0 0 0 0 0 0 0 0 5 5 5 5 5 5 5 5 5 5 5 1 5 5 3 0 0 0 0 0 0 0 0 0 0 0 0 0 0 0 0 0 0 11 100 100 100 100
5 0 4 0 0 0 0 0 0 5 5 5 5 5 5 5 5 5 5 5 5 5 5 0 0 0 0 0 0 0 0 0 0 0 0 0 0 0 0 0 0 0 52 9 100 100 100
18 5 0 0 0 0 0 4 5 5 6 5 5 5 5 5 5 5 5 5 6 5 5 0 0 0 0 0 0 0 0 0 0 0 0 0 0 0 0 0 0 0 1 69 100 100 100
20 5 0 0 0 0 0 5 5 8 37 5 5 5 5 18 8 5 5 5 35 40 5 0 0 0 0 0 0 0 0 0 0 0 0 0 0 0 0 1 2 2 1 6 42 99 100
5 5 0 0 0 0 0 5 5 9 62 36 5 5 14 32 35 51 8 31 10 13 5 2 0 0 0 5 0 0 0 5 0 0 0 0 0 0 0 0 2 5 2 2 5 36 100
5 5 4 0 0 0 0 5 5 8 18 6 5 9 56 19 96 37 38 12 7 11 9 5 0 0 0 0 0 0 5 3 1 2 0 0 0 2 0 0 4 4 42 74 9 5 26
5 5 5 2 0 0 0 3 5 5 11 6 14 50 63 36 76 13 60 43 43 31 14 5 0 0 0 0 0 1 5 1 5 2 0 0 0 1 22 2 84 98 100 88 9 6 10
9 5 5 0 3 0 0 2 5 5 5 32 8 69 45 22 91 52 65 62 76 20 6 5 4 0 0 0 0 5 5 5 5 0 0 0 0 0 5 5 5 20 98 5 70 6 4
5 3 3 0 0 0 0 0 5 5 18 10 15 34 46 5 98 48 40 41 67 14 6 5 5 4 0 0 0 3 5 5 2 0 0 0 3 0 5 5 7 96 7 6 100 70 5
5 3 0 0 0 0 0 0 5 5 15 5 55 6 16 7 82 56 19 56 75 6 5 5 5 5 0 0 0 0 5 5 0 0 0 0 0 0 4 23 97 93 1 17 77 66 4
5 3 0 0 0 0 0 0 5 67 15 5 58 18 6 13 70 8 54 72 80 5 5 5 5 5 0 0 0 0 4 5 5 0 1 0 0 0 0 6 49 0 0 1 5 1 3
15 5 4 0 0 0 0 0 5 43 5 5 40 40 54 35 32 21 8 61 6 5 5 5 7 5 5 2 0 0 0 5 5 2 2 5 5 1 2 3 0 0 0 2 5 1 5
5 5 3 0 0 0 0 0 4 50 5 41 33 22 54 39 8 11 5 39 5 5 5 5 44 32 5 2 2 5 4 5 5 5 5 5 5 4 3 18 5 0 0 2 35 14 47
5 5 3 0 3 5 0 0 4 6 7 20 40 76 52 46 12 37 5 5 5 5 5 5 75 20 5 1 5 5 5 5 9 25 5 5 5 5 5 5 0 0 4 75 100 60 85
39 5 5 0 0 0 0 2 5 66 8 26 58 77 74 18 48 7 5 5 5 3 5 5 8 41 5 23 5 13 30 5 16 32 44 5 10 26 5 15 1 0 40 35 45 68 93
76 5 5 0 0 0 0 1 5 100 5 100 56 61 38 56 56 9 5 5 5 5 5 5 1 5 5 5 39 28 5 46 6 58 43 13 5 5 5 2 0 0 0 0 1 1 1